AirNav   Everest Fuels
 
 889 users online  

ME33 Farr Field Airport
Harpswell, Maine, USA

GOING TO HARPSWELL?


FAA INFORMATION EFFECTIVE 21 MAY 2020

Location

FAA Identifier: ME33
Lat/Long: 43-46-43.2970N 070-00-47.1720W
43-46.721617N 070-00.786200W
43.7786936,-70.0131033
(estimated)
Elevation: 70 ft. / 21 m (estimated)
Variation: 17W (1985)
From city: 2 miles SW of HARPSWELL, ME
Time zone: UTC -4 (UTC -5 during Standard Time)
Zip code: 04079

Airport Operations

Airport use: Private use. Permission required prior to landing
Activation date: 08/1975
Control tower: no
ARTCC: BOSTON CENTER
FSS: BANGOR FLIGHT SERVICE STATION
Attendance: IREG
Wind indicator: no
Segmented circle: no

Airport Communications

WX AWOS-AV at BXM (8 nm NE): 134.875 (207-409-1747)
WX ASOS at PWM (15 nm SW): PHONE 207-874-7914
WX ASOS at IWI (17 nm NE): 135.725 (207-882-8094)
WX AWOS-3PT at LEW (20 nm NW): 118.025 (207-783-2806)

Nearby radio navigation aids

VOR radial/distance  VOR name  Freq  Var
ENEr068/33.6KENNEBUNK VOR/DME117.1017W
AUGr214/33.8AUGUSTA VOR/DME114.9518W

Airport Services

Airframe service: NONE
Powerplant service: NONE

Runway Information

Runway 14/32

Dimensions: 1900 x 100 ft. / 579 x 30 m
Surface: turf
RUNWAY 14  RUNWAY 32
Traffic pattern: leftleft
Obstructions: treesnone

Airport Ownership and Management from official FAA records

Ownership: Privately-owned
Owner: KEYSTONE LLC
4048 SE BARCELONA STREET
STUART, FL 34997
Phone 207-522-5646
Manager: KEYSTONE LLC
4048 SE BARCELONA STREET
STUART, FL 34997
Phone 207-522-5646

Airport Operational Statistics

Aircraft based on the field: 1
Single engine airplanes: 1
    

Additional Remarks

RWY SUBJ TO FROST ACTION SPRING & WINTER. SNOW PLOWED SOMETIMES - CHECK FSS.
RWY ABOUT 30' HIGHER ON EASTERLY END.
FOR CD CTC PORTLAND APCH AT 207-874-7320, WHEN APCH CLSD CTC BOSTON ARTCC AT 603-879-6859.

Instrument Procedures

There are no published instrument procedures at ME33.

Some nearby airports with instrument procedures:

KBXM - Brunswick Executive Airport (8 nm NE)
KPWM - Portland International Jetport (15 nm SW)
KIWI - Wiscasset Airport (17 nm NE)
KLEW - Auburn/Lewiston Municipal Airport (20 nm NW)
B19 - Biddeford Municipal Airport (27 nm SW)
 
Loc | Ops | Rwys | IFR | FBO | Links
Com | Nav | Svcs | Stats | Notes

Auburn-Lewiston Municipal Airport
 
Area around ME33 (Farr Field Airport)
 
Road maps at: MapQuest Bing Google
 
Aerial photo
No photo
 
Sectional chart

 
Airport distance calculator
Flying to Farr Field Airport? Find the distance to fly.

From to ME33

Sunrise and sunset
Times for 31-May-2020
 Local
(UTC-4)
 Zulu
(UTC)
Morning civil twilight04:2708:27
Sunrise05:0209:02
Sunset20:1400:14
Evening civil twilight20:4900:49

Current date and time
Zulu (UTC)  31-May-2020 13:55:15
Local (UTC-4)  31-May-2020 09:55:15
 
METAR
KPWM 
15nm SW 
311251Z 34018G24KT 10SM FEW035 15/04 A2995 RMK AO2 SLP140 T01500039
KIWI 
17nm NE 
311253Z AUTO VRB06G20KT 10SM CLR 14/02 A2994 RMK AO2 SLP138 T01390022
KLEW 
19nm NW 
311256Z AUTO 33017G24KT 10SM BKN039 12/03 A2996 RMK AO2 SLP152 T01220028
TAF
KPWM 
15nm SW 
311120Z 3112/0112 30013KT P6SM SCT050 FM311300 32015G22KT P6SM FEW250 FM010000 31008KT P6SM SCT100
NOTAMs
Click for the latest NOTAMs
NOTAMs are issued by the DoD/FAA and will open in a separate window not controlled by AirNav.

 

 
 

Would you like to see your business listed on this page?

 If your business provides an interesting product or service to pilots, flight crews, aircraft, or users of the Farr Field Airport, you should consider listing it here.  To start the listing process, click on the button below
 
Add a business
 

Other Pages about Farr Field Airport

Update a link
 
Copyright © AirNav, LLC. All rights reserved. Privacy Policy  Contact